Year,Month,Day,Hour,Minute,Value (Times are PST for temperature in C)
2009,04,21,00,00,6.30
2009,04,21,00,01,6.30
2009,04,21,00,02,6.30
2009,04,21,00,03,6.30
2009,04,21,00,04,6.30
2009,04,21,00,05,6.30
2009,04,21,00,06,6.30
2009,04,21,00,07,6.30
2009,04,21,00,08,6.30
2009,04,21,00,09,6.30
2009,04,21,00,10,6.30
2009,04,21,00,11,6.30
2009,04,21,00,12,6.30
2009,04,21,00,13,6.30
2009,04,21,00,14,6.30
2009,04,21,00,15,6.30
2009,04,21,00,16,6.30
2009,04,21,00,17,6.30
2009,04,21,00,18,6.30
2009,04,21,00,19,6.40
2009,04,21,00,20,6.40
2009,04,21,00,21,6.40
2009,04,21,00,22,6.40
2009,04,21,00,23,6.40
2009,04,21,00,24,6.40
2009,04,21,00,25,6.40
2009,04,21,00,26,6.40
2009,04,21,00,27,6.40
2009,04,21,00,28,6.40
2009,04,21,00,29,6.40
2009,04,21,00,30,6.40
2009,04,21,00,31,6.40
2009,04,21,00,32,6.40
2009,04,21,00,33,6.40
2009,04,21,00,34,6.40
2009,04,21,00,35,6.40
2009,04,21,00,36,6.40
2009,04,21,00,37,6.30
2009,04,21,00,38,6.30
2009,04,21,00,39,6.30
2009,04,21,00,40,6.30
2009,04,21,00,41,6.30
2009,04,21,00,42,6.20
2009,04,21,00,43,6.20
2009,04,21,00,44,6.20
2009,04,21,00,45,6.20
2009,04,21,00,46,6.20
2009,04,21,00,47,6.10
2009,04,21,00,48,6.10
2009,04,21,00,49,6.10
2009,04,21,00,50,6.10
2009,04,21,00,51,6.10
2009,04,21,00,52,6.10
2009,04,21,00,53,6.10
2009,04,21,00,54,6.10
2009,04,21,00,55,6.10
2009,04,21,00,56,6.10
2009,04,21,00,57,6.00
2009,04,21,00,58,6.00
2009,04,21,00,59,6.00
2009,04,21,01,00,6.00
2009,04,21,01,01,6.00
2009,04,21,01,02,6.00
2009,04,21,01,03,6.00
2009,04,21,01,04,6.00
2009,04,21,01,05,6.00
2009,04,21,01,06,6.00
2009,04,21,01,07,5.90
2009,04,21,01,08,5.90
2009,04,21,01,09,5.90
2009,04,21,01,10,5.90
2009,04,21,01,11,5.90
2009,04,21,01,12,5.90
2009,04,21,01,13,5.90
2009,04,21,01,14,5.90
2009,04,21,01,15,5.90
2009,04,21,01,16,6.00
2009,04,21,01,17,6.00
2009,04,21,01,18,6.00
2009,04,21,01,19,6.00
2009,04,21,01,20,6.10
2009,04,21,01,21,6.20
2009,04,21,01,22,6.20
2009,04,21,01,23,6.20
2009,04,21,01,24,6.20
2009,04,21,01,25,6.20
2009,04,21,01,26,6.20
2009,04,21,01,27,6.20
2009,04,21,01,28,6.20
2009,04,21,01,29,6.20
2009,04,21,01,30,6.20
2009,04,21,01,31,6.20
2009,04,21,01,32,6.20
2009,04,21,01,33,6.20
2009,04,21,01,34,6.20
2009,04,21,01,35,6.20
2009,04,21,01,36,6.20
2009,04,21,01,37,6.20
2009,04,21,01,38,6.20
2009,04,21,01,39,6.20
2009,04,21,01,40,6.20
2009,04,21,01,41,6.20
2009,04,21,01,42,6.20
2009,04,21,01,43,6.20
2009,04,21,01,44,6.20
2009,04,21,01,45,6.20
2009,04,21,01,46,6.20
2009,04,21,01,47,6.20
2009,04,21,01,48,6.20
2009,04,21,01,49,6.20
2009,04,21,01,50,6.20
2009,04,21,01,51,6.20
2009,04,21,01,52,6.20
2009,04,21,01,53,6.20
2009,04,21,01,54,6.20
2009,04,21,01,55,6.30
2009,04,21,01,56,6.30
2009,04,21,01,57,6.30
2009,04,21,01,58,6.30
2009,04,21,01,59,6.30
2009,04,21,02,00,6.30
2009,04,21,02,01,6.30
2009,04,21,02,02,6.30
2009,04,21,02,03,6.30
2009,04,21,02,04,6.30
2009,04,21,02,05,6.30
2009,04,21,02,06,6.30
2009,04,21,02,07,6.30
2009,04,21,02,08,6.30
2009,04,21,02,09,6.30
2009,04,21,02,10,6.30
2009,04,21,02,11,6.20
2009,04,21,02,12,6.20
2009,04,21,02,13,6.20
2009,04,21,02,14,6.20
2009,04,21,02,15,6.20
2009,04,21,02,16,6.20
2009,04,21,02,17,6.10
2009,04,21,02,18,6.10
2009,04,21,02,19,6.10
2009,04,21,02,20,6.00
2009,04,21,02,21,6.00
2009,04,21,02,22,6.00
2009,04,21,02,23,6.00
2009,04,21,02,24,5.90
2009,04,21,02,25,5.90
2009,04,21,02,26,5.90
2009,04,21,02,27,5.90
2009,04,21,02,28,5.90
2009,04,21,02,29,5.90
2009,04,21,02,30,5.90
2009,04,21,02,31,5.90
2009,04,21,02,32,5.90
2009,04,21,02,33,5.90
2009,04,21,02,34,5.90
2009,04,21,02,35,5.80
2009,04,21,02,36,5.80
2009,04,21,02,37,5.80
2009,04,21,02,38,5.80
2009,04,21,02,39,5.80
2009,04,21,02,40,5.80
2009,04,21,02,41,5.80
2009,04,21,02,42,5.80
2009,04,21,02,43,5.80
2009,04,21,02,44,5.80
2009,04,21,02,45,5.80
2009,04,21,02,46,5.70
2009,04,21,02,47,5.70
2009,04,21,02,48,5.70
2009,04,21,02,49,5.70
2009,04,21,02,50,5.70
2009,04,21,02,51,5.70
2009,04,21,02,52,5.70
2009,04,21,02,53,5.70
2009,04,21,02,54,5.70
2009,04,21,02,55,5.70
2009,04,21,02,56,5.70
2009,04,21,02,57,5.70
2009,04,21,02,58,5.70
2009,04,21,02,59,5.70
2009,04,21,03,00,5.70
2009,04,21,03,01,5.60
2009,04,21,03,02,5.60
2009,04,21,03,03,5.60
2009,04,21,03,04,5.60
2009,04,21,03,05,5.60
2009,04,21,03,06,5.60
2009,04,21,03,07,5.50
2009,04,21,03,08,5.50
2009,04,21,03,09,5.50
2009,04,21,03,10,5.40
2009,04,21,03,11,5.40
2009,04,21,03,12,5.40
2009,04,21,03,13,5.30
2009,04,21,03,14,5.30
2009,04,21,03,15,5.30
2009,04,21,03,16,5.30
2009,04,21,03,17,5.30
2009,04,21,03,18,5.20
2009,04,21,03,19,5.20
2009,04,21,03,20,5.20
2009,04,21,03,21,5.20
2009,04,21,03,22,5.10
2009,04,21,03,23,5.10
2009,04,21,03,24,5.10
2009,04,21,03,25,5.10
2009,04,21,03,26,5.10
2009,04,21,03,27,5.10
2009,04,21,03,28,5.10
2009,04,21,03,29,5.10
2009,04,21,03,30,5.10
2009,04,21,03,31,5.10
2009,04,21,03,32,5.10
2009,04,21,03,33,5.10
2009,04,21,03,34,5.10
2009,04,21,03,35,5.10
2009,04,21,03,36,5.10
2009,04,21,03,37,5.10
2009,04,21,03,38,5.10
2009,04,21,03,39,5.10
2009,04,21,03,40,5.10
2009,04,21,03,41,5.10
2009,04,21,03,42,5.10
2009,04,21,03,43,5.10
2009,04,21,03,44,5.10
2009,04,21,03,45,5.10
2009,04,21,03,46,5.10
2009,04,21,03,47,5.10
2009,04,21,03,48,5.10
2009,04,21,03,49,5.10
2009,04,21,03,50,5.10
2009,04,21,03,51,5.10
2009,04,21,03,52,5.10
2009,04,21,03,53,5.10
2009,04,21,03,54,5.10
2009,04,21,03,55,5.10
2009,04,21,03,56,5.10
2009,04,21,03,57,5.10
2009,04,21,03,58,4.90
2009,04,21,03,59,4.90
2009,04,21,04,00,4.90
2009,04,21,04,01,4.90
2009,04,21,04,02,4.90
2009,04,21,04,03,4.90
2009,04,21,04,04,4.90
2009,04,21,04,05,4.90
2009,04,21,04,06,4.90
2009,04,21,04,07,4.80
2009,04,21,04,08,4.80
2009,04,21,04,09,4.80
2009,04,21,04,10,4.80
2009,04,21,04,11,4.80
2009,04,21,04,12,4.80
2009,04,21,04,13,4.70
2009,04,21,04,14,4.70
2009,04,21,04,15,4.70
2009,04,21,04,16,4.70
2009,04,21,04,17,4.70
2009,04,21,04,18,4.70
2009,04,21,04,19,4.70
2009,04,21,04,20,4.70
2009,04,21,04,21,4.70
2009,04,21,04,22,4.70
2009,04,21,04,23,4.70
2009,04,21,04,24,4.70
2009,04,21,04,25,4.70
2009,04,21,04,26,4.70
2009,04,21,04,27,4.60
2009,04,21,04,28,4.60
2009,04,21,04,29,4.60
2009,04,21,04,30,4.60
2009,04,21,04,31,4.60
2009,04,21,04,32,4.50
2009,04,21,04,33,4.50
2009,04,21,04,34,4.50
2009,04,21,04,35,4.40
2009,04,21,04,36,4.40
2009,04,21,04,37,4.40
2009,04,21,04,38,4.40
2009,04,21,04,39,4.30
2009,04,21,04,40,4.30
2009,04,21,04,41,4.30
2009,04,21,04,42,4.20
2009,04,21,04,43,4.20
2009,04,21,04,44,4.20
2009,04,21,04,45,4.20
2009,04,21,04,46,4.20
2009,04,21,04,47,4.20
2009,04,21,04,48,4.10
2009,04,21,04,49,4.10
2009,04,21,04,50,4.00
2009,04,21,04,51,4.00
2009,04,21,04,52,4.00
2009,04,21,04,53,4.00
2009,04,21,04,54,3.90
2009,04,21,04,55,3.90
2009,04,21,04,56,3.90
2009,04,21,04,57,3.90
2009,04,21,04,58,3.90
2009,04,21,04,59,3.90
2009,04,21,05,00,3.90
2009,04,21,05,01,3.90
2009,04,21,05,02,3.90
2009,04,21,05,03,3.80
2009,04,21,05,04,3.80
2009,04,21,05,05,3.80
2009,04,21,05,06,3.80
2009,04,21,05,07,3.80
2009,04,21,05,08,3.80
2009,04,21,05,09,3.80
2009,04,21,05,10,3.80
2009,04,21,05,11,3.80
2009,04,21,05,12,3.70
2009,04,21,05,13,3.70
2009,04,21,05,14,3.70
2009,04,21,05,15,3.70
2009,04,21,05,16,3.60
2009,04,21,05,17,3.60
2009,04,21,05,18,3.60
2009,04,21,05,19,3.60
2009,04,21,05,20,3.60
2009,04,21,05,21,3.60
2009,04,21,05,22,3.60
2009,04,21,05,23,3.60
2009,04,21,05,24,3.60
2009,04,21,05,25,3.60
2009,04,21,05,26,3.70
2009,04,21,05,27,3.70
2009,04,21,05,28,3.80
2009,04,21,05,29,3.80
2009,04,21,05,30,3.80
2009,04,21,05,31,3.80
2009,04,21,05,32,3.80
2009,04,21,05,33,3.80
2009,04,21,05,34,3.80
2009,04,21,05,35,3.90
2009,04,21,05,36,3.80
2009,04,21,05,37,3.80
2009,04,21,05,38,3.80
2009,04,21,05,39,3.80
2009,04,21,05,40,3.80
2009,04,21,05,41,3.80
2009,04,21,05,42,3.70
2009,04,21,05,43,3.70
2009,04,21,05,44,3.70
2009,04,21,05,45,3.70
2009,04,21,05,46,3.70
2009,04,21,05,47,3.70
2009,04,21,05,48,3.70
2009,04,21,05,49,3.70
2009,04,21,05,50,3.80
2009,04,21,05,51,3.80
2009,04,21,05,52,3.80
2009,04,21,05,53,3.80
2009,04,21,05,54,3.80
2009,04,21,05,55,3.80
2009,04,21,05,56,3.80
2009,04,21,05,57,3.80
2009,04,21,05,58,3.70
2009,04,21,05,59,3.70
2009,04,21,06,00,3.70
2009,04,21,06,01,3.70
2009,04,21,06,02,3.80
2009,04,21,06,03,3.70
2009,04,21,06,04,3.70
2009,04,21,06,05,3.70
2009,04,21,06,06,3.70
2009,04,21,06,07,3.70
2009,04,21,06,08,3.60
2009,04,21,06,09,3.60
2009,04,21,06,10,3.60
2009,04,21,06,11,3.60
2009,04,21,06,12,3.50
2009,04,21,06,13,3.50
2009,04,21,06,14,3.50
2009,04,21,06,15,3.50
2009,04,21,06,16,3.50
2009,04,21,06,17,3.60
2009,04,21,06,18,3.60
2009,04,21,06,19,3.60
2009,04,21,06,20,3.60
2009,04,21,06,21,3.70
2009,04,21,06,22,3.70
2009,04,21,06,23,3.70
2009,04,21,06,24,3.60
2009,04,21,06,25,3.60
2009,04,21,06,26,3.60
2009,04,21,06,27,3.50
2009,04,21,06,28,3.50
2009,04,21,06,29,3.50
2009,04,21,06,30,3.50
2009,04,21,06,31,3.50
2009,04,21,06,32,3.50
2009,04,21,06,33,3.50
2009,04,21,06,34,3.50
2009,04,21,06,35,3.60
2009,04,21,06,36,3.60
2009,04,21,06,37,3.70
2009,04,21,06,38,3.70
2009,04,21,06,39,3.80
2009,04,21,06,40,3.80
2009,04,21,06,41,3.80
2009,04,21,06,42,3.90
2009,04,21,06,43,3.90
2009,04,21,06,44,4.00
2009,04,21,06,45,4.00
2009,04,21,06,46,4.00
2009,04,21,06,47,4.10
2009,04,21,06,48,4.20
2009,04,21,06,49,4.20
2009,04,21,06,50,4.30
2009,04,21,06,51,4.40
2009,04,21,06,52,4.50
2009,04,21,06,53,4.50
2009,04,21,06,54,4.60
2009,04,21,06,55,4.60
2009,04,21,06,56,4.60
2009,04,21,06,57,4.60
2009,04,21,06,58,4.60
2009,04,21,06,59,4.60
2009,04,21,07,00,4.60
2009,04,21,07,01,4.60
2009,04,21,07,02,4.50
2009,04,21,07,03,4.50
2009,04,21,07,04,4.40
2009,04,21,07,05,4.40
2009,04,21,07,06,4.30
2009,04,21,07,07,4.30
2009,04,21,07,08,4.20
2009,04,21,07,09,4.20
2009,04,21,07,10,4.20
2009,04,21,07,11,4.20
2009,04,21,07,12,4.20
2009,04,21,07,13,4.10
2009,04,21,07,14,4.10
2009,04,21,07,15,4.10
2009,04,21,07,16,4.20
2009,04,21,07,17,4.20
2009,04,21,07,18,4.20
2009,04,21,07,19,4.20
2009,04,21,07,20,4.30
2009,04,21,07,21,4.30
2009,04,21,07,22,4.40
2009,04,21,07,23,4.50
2009,04,21,07,24,4.50
2009,04,21,07,25,4.60
2009,04,21,07,26,4.60
2009,04,21,07,27,4.60
2009,04,21,07,28,4.70
2009,04,21,07,29,4.70
2009,04,21,07,30,4.70
2009,04,21,07,31,4.70
2009,04,21,07,32,4.80
2009,04,21,07,33,4.80
2009,04,21,07,34,4.80
2009,04,21,07,35,4.90
2009,04,21,07,36,4.90
2009,04,21,07,37,5.00
2009,04,21,07,38,5.10
2009,04,21,07,39,5.10
2009,04,21,07,40,5.10
2009,04,21,07,41,5.10
2009,04,21,07,42,5.10
2009,04,21,07,43,5.10
2009,04,21,07,44,5.10
2009,04,21,07,45,5.10
2009,04,21,07,46,5.10
2009,04,21,07,47,5.10
2009,04,21,07,48,5.20
2009,04,21,07,49,5.20
2009,04,21,07,50,5.20
2009,04,21,07,51,5.20
2009,04,21,07,52,5.30
2009,04,21,07,53,5.30
2009,04,21,07,54,5.30
2009,04,21,07,55,5.30
2009,04,21,07,56,5.30
2009,04,21,07,57,5.30
2009,04,21,07,58,5.40
2009,04,21,07,59,5.40
2009,04,21,08,00,5.40
2009,04,21,08,01,5.50
2009,04,21,08,02,5.50
2009,04,21,08,03,5.50
2009,04,21,08,04,5.60
2009,04,21,08,05,5.60
2009,04,21,08,06,5.60
2009,04,21,08,07,5.70
2009,04,21,08,08,5.70
2009,04,21,08,09,5.70
2009,04,21,08,10,5.70
2009,04,21,08,11,5.70
2009,04,21,08,12,5.80
2009,04,21,08,13,5.80
2009,04,21,08,14,5.80
2009,04,21,08,15,5.70
2009,04,21,08,16,5.70
2009,04,21,08,17,5.70
2009,04,21,08,18,5.70
2009,04,21,08,19,5.70
2009,04,21,08,20,5.80
2009,04,21,08,21,5.80
2009,04,21,08,22,5.90
2009,04,21,08,23,5.90
2009,04,21,08,24,5.90
2009,04,21,08,25,5.90
2009,04,21,08,26,6.00
2009,04,21,08,27,6.00
2009,04,21,08,28,6.00
2009,04,21,08,29,6.00
2009,04,21,08,30,6.00
2009,04,21,08,31,6.00
2009,04,21,08,32,6.10
2009,04,21,08,33,6.10
2009,04,21,08,34,6.20
2009,04,21,08,35,6.20
2009,04,21,08,36,6.20
2009,04,21,08,37,6.20
2009,04,21,08,38,6.20
2009,04,21,08,39,6.30
2009,04,21,08,40,6.30
2009,04,21,08,41,6.30
2009,04,21,08,42,6.20
2009,04,21,08,43,6.20
2009,04,21,08,44,6.20
2009,04,21,08,45,6.10
2009,04,21,08,46,6.10
2009,04,21,08,47,6.10
2009,04,21,08,48,6.20
2009,04,21,08,49,6.20
2009,04,21,08,50,6.30
2009,04,21,08,51,6.40
2009,04,21,08,52,6.40
2009,04,21,08,53,6.40
2009,04,21,08,54,6.50
2009,04,21,08,55,6.60
2009,04,21,08,56,6.50
2009,04,21,08,57,6.40
2009,04,21,08,58,6.50
2009,04,21,08,59,6.50
2009,04,21,09,00,6.60
2009,04,21,09,01,6.60
2009,04,21,09,02,6.60
2009,04,21,09,03,6.60
2009,04,21,09,04,6.70
2009,04,21,09,05,6.70
2009,04,21,09,06,6.70
2009,04,21,09,07,6.80
2009,04,21,09,08,6.80
2009,04,21,09,09,6.80
2009,04,21,09,10,6.80
2009,04,21,09,11,6.80
2009,04,21,09,12,6.80
2009,04,21,09,13,6.80
2009,04,21,09,14,6.90
2009,04,21,09,15,7.00
2009,04,21,09,16,7.00
2009,04,21,09,17,7.10
2009,04,21,09,18,7.10
2009,04,21,09,19,7.10
2009,04,21,09,20,7.10
2009,04,21,09,21,7.10
2009,04,21,09,22,7.10
2009,04,21,09,23,7.20
2009,04,21,09,24,7.20
2009,04,21,09,25,7.20
2009,04,21,09,26,7.20
2009,04,21,09,27,7.20
2009,04,21,09,28,7.30
2009,04,21,09,29,7.30
2009,04,21,09,30,7.40
2009,04,21,09,31,7.40
2009,04,21,09,32,7.50
2009,04,21,09,33,7.60
2009,04,21,09,34,7.50
2009,04,21,09,35,7.50
2009,04,21,09,36,7.50
2009,04,21,09,37,7.50
2009,04,21,09,38,7.50
2009,04,21,09,39,7.40
2009,04,21,09,40,7.40
2009,04,21,09,41,7.40
2009,04,21,09,42,7.30
2009,04,21,09,43,7.50
2009,04,21,09,44,7.60
2009,04,21,09,45,7.50
2009,04,21,09,46,7.40
2009,04,21,09,47,7.30
2009,04,21,09,48,7.30
2009,04,21,09,49,7.40
2009,04,21,09,50,7.40
2009,04,21,09,51,7.30
2009,04,21,09,52,7.20
2009,04,21,09,53,7.10
2009,04,21,09,54,7.10
2009,04,21,09,55,7.20
2009,04,21,09,56,7.30
2009,04,21,09,57,7.20
2009,04,21,09,58,7.10
2009,04,21,09,59,7.10
2009,04,21,10,00,7.10
2009,04,21,10,01,7.10
2009,04,21,10,02,7.10
2009,04,21,10,03,7.10
2009,04,21,10,04,7.20
2009,04,21,10,05,7.30
2009,04,21,10,06,7.30
2009,04,21,10,07,7.20
2009,04,21,10,08,7.10
2009,04,21,10,09,7.10
2009,04,21,10,10,7.30
2009,04,21,10,11,7.50
2009,04,21,10,12,7.50
2009,04,21,10,13,7.60
2009,04,21,10,14,7.60
2009,04,21,10,15,7.60
2009,04,21,10,16,7.60
2009,04,21,10,17,7.60
2009,04,21,10,18,7.70
2009,04,21,10,19,7.70
2009,04,21,10,20,7.70
2009,04,21,10,21,7.60
2009,04,21,10,22,7.60
2009,04,21,10,23,7.70
2009,04,21,10,24,7.70
2009,04,21,10,25,7.80
2009,04,21,10,26,7.80
2009,04,21,10,27,7.90
2009,04,21,10,28,7.90
2009,04,21,10,29,7.90
2009,04,21,10,30,7.90
2009,04,21,10,31,8.00
2009,04,21,10,32,7.90
2009,04,21,10,33,7.90
2009,04,21,10,34,7.80
2009,04,21,10,35,7.80
2009,04,21,10,36,7.90
2009,04,21,10,37,8.00
2009,04,21,10,38,8.10
2009,04,21,10,39,8.20
2009,04,21,10,40,8.20
2009,04,21,10,41,8.10
2009,04,21,10,42,8.10
2009,04,21,10,43,8.20
2009,04,21,10,44,8.20
2009,04,21,10,45,8.40
2009,04,21,10,46,8.50
2009,04,21,10,47,8.60
2009,04,21,10,48,8.70
2009,04,21,10,49,8.70
2009,04,21,10,50,8.70
2009,04,21,10,51,8.70
2009,04,21,10,52,8.80
2009,04,21,10,53,8.90
2009,04,21,10,54,8.90
2009,04,21,10,55,9.00
2009,04,21,10,56,9.00
2009,04,21,10,57,9.20
2009,04,21,10,58,9.20
2009,04,21,10,59,9.30
2009,04,21,11,00,9.40
2009,04,21,11,01,9.50
2009,04,21,11,02,9.70
2009,04,21,11,03,9.80
2009,04,21,11,04,10.00
2009,04,21,11,05,10.10
2009,04,21,11,06,10.10
2009,04,21,11,07,10.10
2009,04,21,11,08,10.30
2009,04,21,11,09,10.30
2009,04,21,11,10,10.40
2009,04,21,11,11,10.60
2009,04,21,11,12,10.60
2009,04,21,11,13,10.60
2009,04,21,11,14,10.70
2009,04,21,11,15,10.80
2009,04,21,11,16,10.80
2009,04,21,11,17,10.90
2009,04,21,11,18,10.90
2009,04,21,11,19,11.00
2009,04,21,11,20,11.10
2009,04,21,11,21,11.20
2009,04,21,11,22,11.40
2009,04,21,11,23,11.70
2009,04,21,11,24,11.80
2009,04,21,11,25,11.90
2009,04,21,11,26,12.00
2009,04,21,11,27,12.10
2009,04,21,11,28,12.30
2009,04,21,11,29,12.40
2009,04,21,11,30,12.60
2009,04,21,11,31,12.90
2009,04,21,11,32,13.30
2009,04,21,11,33,13.60
2009,04,21,11,34,13.70
2009,04,21,11,35,13.80
2009,04,21,11,36,14.00
2009,04,21,11,37,14.10
2009,04,21,11,38,14.40
2009,04,21,11,39,14.70
2009,04,21,11,40,15.10
2009,04,21,11,41,15.40
2009,04,21,11,42,15.70
2009,04,21,11,43,16.00
2009,04,21,11,44,16.30
2009,04,21,11,45,16.40
2009,04,21,11,46,16.60
2009,04,21,11,47,16.70
2009,04,21,11,48,16.70
2009,04,21,11,49,16.80
2009,04,21,11,50,16.90
2009,04,21,11,51,16.90
2009,04,21,11,52,16.90
2009,04,21,11,53,16.90
2009,04,21,11,54,16.90
2009,04,21,11,55,17.00
2009,04,21,11,56,17.00
2009,04,21,11,57,17.00
2009,04,21,11,58,16.90
2009,04,21,11,59,16.70
2009,04,21,12,00,16.70
2009,04,21,12,01,16.70
2009,04,21,12,02,16.70
2009,04,21,12,03,16.70
2009,04,21,12,04,16.80
2009,04,21,12,05,16.80
2009,04,21,12,06,16.90
2009,04,21,12,07,17.00
2009,04,21,12,08,17.10
2009,04,21,12,09,17.00
2009,04,21,12,10,17.00
2009,04,21,12,11,16.80
2009,04,21,12,12,16.90
2009,04,21,12,13,16.90
2009,04,21,12,14,17.00
2009,04,21,12,15,17.10
2009,04,21,12,16,17.00
2009,04,21,12,17,17.00
2009,04,21,12,18,17.00
2009,04,21,12,19,17.00
2009,04,21,12,20,16.90
2009,04,21,12,21,16.90
2009,04,21,12,22,16.90
2009,04,21,12,23,16.80
2009,04,21,12,24,16.80
2009,04,21,12,25,16.80
2009,04,21,12,26,16.80
2009,04,21,12,27,16.80
2009,04,21,12,28,16.80
2009,04,21,12,29,16.80
2009,04,21,12,30,16.70
2009,04,21,12,31,16.70
2009,04,21,12,32,16.70
2009,04,21,12,33,16.70
2009,04,21,12,34,16.70
2009,04,21,12,35,16.70
2009,04,21,12,36,16.70
2009,04,21,12,37,16.70
2009,04,21,12,38,16.80
2009,04,21,12,39,16.80
2009,04,21,12,40,17.00
2009,04,21,12,41,17.00
2009,04,21,12,42,17.10
2009,04,21,12,43,17.20
2009,04,21,12,44,17.10
2009,04,21,12,45,17.20
2009,04,21,12,46,17.20
2009,04,21,12,47,17.20
2009,04,21,12,48,17.30
2009,04,21,12,49,17.30
2009,04,21,12,50,17.30
2009,04,21,12,51,17.20
2009,04,21,12,52,17.20
2009,04,21,12,53,17.20
2009,04,21,12,54,17.00
2009,04,21,12,55,17.00
2009,04,21,12,56,16.80
2009,04,21,12,57,16.80
2009,04,21,12,58,16.80
2009,04,21,12,59,16.90
2009,04,21,13,00,17.00
2009,04,21,13,01,17.10
2009,04,21,13,02,17.20
2009,04,21,13,03,17.20
2009,04,21,13,04,17.20
2009,04,21,13,05,17.30
2009,04,21,13,06,17.30
2009,04,21,13,07,17.30
2009,04,21,13,08,17.40
2009,04,21,13,09,17.50
2009,04,21,13,10,17.50
2009,04,21,13,11,17.50
2009,04,21,13,12,17.60
2009,04,21,13,13,17.60
2009,04,21,13,14,17.60
2009,04,21,13,15,17.70
2009,04,21,13,16,17.60
2009,04,21,13,17,17.40
2009,04,21,13,18,17.30
2009,04,21,13,19,17.30
2009,04,21,13,20,17.30
2009,04,21,13,21,17.30
2009,04,21,13,22,17.20
2009,04,21,13,23,17.20
2009,04,21,13,24,17.30
2009,04,21,13,25,17.30
2009,04,21,13,26,17.30
2009,04,21,13,27,17.20
2009,04,21,13,28,17.20
2009,04,21,13,29,17.20
2009,04,21,13,30,17.30
2009,04,21,13,31,17.30
2009,04,21,13,32,17.40
2009,04,21,13,33,17.50
2009,04,21,13,34,17.60
2009,04,21,13,35,17.60
2009,04,21,13,36,17.60
2009,04,21,13,37,17.70
2009,04,21,13,38,17.80
2009,04,21,13,39,17.90
2009,04,21,13,40,18.00
2009,04,21,13,41,18.10
2009,04,21,13,42,18.20
2009,04,21,13,43,18.20
2009,04,21,13,44,18.20
2009,04,21,13,45,18.20
2009,04,21,13,46,18.20
2009,04,21,13,47,18.20
2009,04,21,13,48,18.00
2009,04,21,13,49,17.90
2009,04,21,13,50,17.80
2009,04,21,13,51,17.80
2009,04,21,13,52,17.90
2009,04,21,13,53,17.80
2009,04,21,13,54,17.80
2009,04,21,13,55,17.80
2009,04,21,13,56,17.90
2009,04,21,13,57,17.90
2009,04,21,13,58,18.00
2009,04,21,13,59,18.10
2009,04,21,14,00,18.20
2009,04,21,14,01,18.20
2009,04,21,14,02,18.20
2009,04,21,14,03,18.20
2009,04,21,14,04,18.20
2009,04,21,14,05,18.20
2009,04,21,14,06,18.30
2009,04,21,14,07,18.30
2009,04,21,14,08,18.30
2009,04,21,14,09,18.30
2009,04,21,14,10,18.30
2009,04,21,14,11,18.20
2009,04,21,14,12,18.30
2009,04,21,14,13,18.30
2009,04,21,14,14,18.30
2009,04,21,14,15,18.40
2009,04,21,14,16,18.50
2009,04,21,14,17,18.60
2009,04,21,14,18,18.60
2009,04,21,14,19,18.60
2009,04,21,14,20,18.70
2009,04,21,14,21,18.60
2009,04,21,14,22,18.60
2009,04,21,14,23,18.50
2009,04,21,14,24,18.30
2009,04,21,14,25,18.10
2009,04,21,14,26,17.90
2009,04,21,14,27,17.80
2009,04,21,14,28,17.70
2009,04,21,14,29,17.70
2009,04,21,14,30,17.70
2009,04,21,14,31,17.80
2009,04,21,14,32,17.70
2009,04,21,14,33,17.60
2009,04,21,14,34,17.50
2009,04,21,14,35,17.50
2009,04,21,14,36,17.50
2009,04,21,14,37,17.50
2009,04,21,14,38,17.50
2009,04,21,14,39,17.50
2009,04,21,14,40,17.70
2009,04,21,14,41,17.80
2009,04,21,14,42,17.90
2009,04,21,14,43,17.90
2009,04,21,14,44,18.00
2009,04,21,14,45,18.10
2009,04,21,14,46,18.10
2009,04,21,14,47,18.00
2009,04,21,14,48,17.90
2009,04,21,14,49,17.90
2009,04,21,14,50,17.90
2009,04,21,14,51,17.90
2009,04,21,14,52,17.90
2009,04,21,14,53,17.90
2009,04,21,14,54,17.90
2009,04,21,14,55,17.90
2009,04,21,14,56,17.90
2009,04,21,14,57,17.80
2009,04,21,14,58,17.70
2009,04,21,14,59,17.70
2009,04,21,15,00,17.70
2009,04,21,15,01,17.50
2009,04,21,15,02,17.40
2009,04,21,15,03,17.40
2009,04,21,15,04,17.40
2009,04,21,15,05,17.40
2009,04,21,15,06,17.40
2009,04,21,15,07,17.40
2009,04,21,15,08,17.40
2009,04,21,15,09,17.40
2009,04,21,15,10,17.40
2009,04,21,15,11,17.30
2009,04,21,15,12,17.30
2009,04,21,15,13,17.30
2009,04,21,15,14,17.30
2009,04,21,15,15,17.30
2009,04,21,15,16,17.40
2009,04,21,15,17,17.40
2009,04,21,15,18,17.40
2009,04,21,15,19,17.50
2009,04,21,15,20,17.50
2009,04,21,15,21,17.50
2009,04,21,15,22,17.50
2009,04,21,15,23,17.40
2009,04,21,15,24,17.30
2009,04,21,15,25,17.30
2009,04,21,15,26,17.30
2009,04,21,15,27,17.10
2009,04,21,15,28,17.10
2009,04,21,15,29,17.20
2009,04,21,15,30,17.20
2009,04,21,15,31,17.30
2009,04,21,15,32,17.30
2009,04,21,15,33,17.30
2009,04,21,15,34,17.40
2009,04,21,15,35,17.50
2009,04,21,15,36,17.60
2009,04,21,15,37,17.60
2009,04,21,15,38,17.60
2009,04,21,15,39,17.60
2009,04,21,15,40,17.60
2009,04,21,15,41,17.50
2009,04,21,15,42,17.50
2009,04,21,15,43,17.40
2009,04,21,15,44,17.40
2009,04,21,15,45,17.40
2009,04,21,15,46,17.30
2009,04,21,15,47,17.30
2009,04,21,15,48,17.30
2009,04,21,15,49,17.30
2009,04,21,15,50,17.40
2009,04,21,15,51,17.40
2009,04,21,15,52,17.40
2009,04,21,15,53,17.40
2009,04,21,15,54,17.40
2009,04,21,15,55,17.40
2009,04,21,15,56,17.30
2009,04,21,15,57,17.30
2009,04,21,15,58,17.40
2009,04,21,15,59,17.30
2009,04,21,16,00,17.30
2009,04,21,16,01,17.30
2009,04,21,16,02,17.30
2009,04,21,16,03,17.30
2009,04,21,16,04,17.30
2009,04,21,16,05,17.30
2009,04,21,16,06,17.30
2009,04,21,16,07,17.30
2009,04,21,16,08,17.30
2009,04,21,16,09,17.20
2009,04,21,16,10,17.20
2009,04,21,16,11,17.20
2009,04,21,16,12,17.30
2009,04,21,16,13,17.40
2009,04,21,16,14,17.40
2009,04,21,16,15,17.40
2009,04,21,16,16,17.40
2009,04,21,16,17,17.30
2009,04,21,16,18,17.30
2009,04,21,16,19,17.20
2009,04,21,16,20,17.10
2009,04,21,16,21,17.00
2009,04,21,16,22,16.90
2009,04,21,16,23,16.80
2009,04,21,16,24,16.70
2009,04,21,16,25,16.70
2009,04,21,16,26,16.70
2009,04,21,16,27,16.80
2009,04,21,16,28,16.80
2009,04,21,16,29,16.80
2009,04,21,16,30,16.80
2009,04,21,16,31,16.70
2009,04,21,16,32,16.70
2009,04,21,16,33,16.70
2009,04,21,16,34,16.70
2009,04,21,16,35,16.70
2009,04,21,16,36,16.70
2009,04,21,16,37,16.70
2009,04,21,16,38,16.70
2009,04,21,16,39,16.70
2009,04,21,16,40,16.70
2009,04,21,16,41,16.70
2009,04,21,16,42,16.70
2009,04,21,16,43,16.60
2009,04,21,16,44,16.60
2009,04,21,16,45,16.70
2009,04,21,16,46,16.70
2009,04,21,16,47,16.70
2009,04,21,16,48,16.70
2009,04,21,16,49,16.70
2009,04,21,16,50,16.70
2009,04,21,16,51,16.80
2009,04,21,16,52,16.90
2009,04,21,16,53,16.90
2009,04,21,16,54,17.00
2009,04,21,16,55,17.00
2009,04,21,16,56,17.00
2009,04,21,16,57,16.90
2009,04,21,16,58,16.90
2009,04,21,16,59,16.90
2009,04,21,17,00,16.90
2009,04,21,17,01,16.90
2009,04,21,17,02,16.80
2009,04,21,17,03,16.80
2009,04,21,17,04,16.70
2009,04,21,17,05,16.70
2009,04,21,17,06,16.70
2009,04,21,17,07,16.70
2009,04,21,17,08,16.70
2009,04,21,17,09,16.70
2009,04,21,17,10,16.70
2009,04,21,17,11,16.70
2009,04,21,17,12,16.70
2009,04,21,17,13,16.70
2009,04,21,17,14,16.70
2009,04,21,17,15,16.70
2009,04,21,17,16,16.70
2009,04,21,17,17,16.70
2009,04,21,17,18,16.70
2009,04,21,17,19,16.70
2009,04,21,17,20,16.70
2009,04,21,17,21,16.70
2009,04,21,17,22,16.70
2009,04,21,17,23,16.70
2009,04,21,17,24,16.70
2009,04,21,17,25,16.70
2009,04,21,17,26,16.70
2009,04,21,17,27,16.70
2009,04,21,17,28,16.70
2009,04,21,17,29,16.60
2009,04,21,17,30,16.40
2009,04,21,17,31,16.40
2009,04,21,17,32,16.30
2009,04,21,17,33,16.30
2009,04,21,17,34,16.20
2009,04,21,17,35,16.20
2009,04,21,17,36,16.10
2009,04,21,17,37,16.10
2009,04,21,17,38,16.10
2009,04,21,17,39,16.10
2009,04,21,17,40,16.10
2009,04,21,17,41,16.10
2009,04,21,17,42,16.10
2009,04,21,17,43,16.10
2009,04,21,17,44,16.10
2009,04,21,17,45,16.10
2009,04,21,17,46,16.20
2009,04,21,17,47,16.20
2009,04,21,17,48,16.20